Wetterdaten: Samstag, 27.06.2020
Datum Zeit Temp. I. Temp. A. Boden 5 cm Feuchte A. Sonne Luftdruck Regen Wind Zeit Regen
27.06.2020 00:01 21,9 C 19,4 C 19,3 C 74 % 74 % 1016 hPa 0,0 l/m 5,6 km/h (1 Bft) 0 min
27.06.2020 00:16 22,0 C 19,4 C 19,3 C 74 % 74 % 1016 hPa 0,0 l/m 8,0 km/h (2 Bft) 0 min
27.06.2020 00:19 21,9 C 19,4 C 19,3 C 74 % 74 % 1016 hPa 0,0 l/m 7,4 km/h (2 Bft) 0 min
27.06.2020 00:22 21,9 C 19,4 C 19,3 C 74 % 74 % 1016 hPa 0,0 l/m 7,2 km/h (2 Bft) 0 min
27.06.2020 00:25 21,9 C 19,3 C 19,2 C 74 % 74 % 1016 hPa 0,3 l/m 4,5 km/h (1 Bft) 3 min
27.06.2020 00:28 21,9 C 19,3 C 19,2 C 74 % 74 % 1016 hPa 0,0 l/m 0,0 km/h (0 Bft) 0 min
27.06.2020 00:31 21,9 C 19,2 C 19,1 C 75 % 74 % 1016 hPa 0,0 l/m 0,0 km/h (0 Bft) 0 min
27.06.2020 00:34 21,9 C 19,2 C 19,1 C 75 % 74 % 1016 hPa 0,0 l/m 0,0 km/h (0 Bft) 0 min
27.06.2020 00:37 21,9 C 19,1 C 19,0 C 76 % 74 % 1016 hPa 0,3 l/m 0,0 km/h (0 Bft) 3 min
27.06.2020 00:40 21,9 C 19,0 C 18,9 C 75 % 74 % 1016 hPa 0,0 l/m 0,0 km/h (0 Bft) 0 min
27.06.2020 00:43 21,9 C 18,9 C 18,9 C 76 % 74 % 1016 hPa 0,3 l/m 0,0 km/h (0 Bft) 3 min
27.06.2020 00:46 21,8 C 18,8 C 18,9 C 76 % 74 % 1016 hPa 0,0 l/m 0,1 km/h (0 Bft) 0 min
27.06.2020 00:49 21,8 C 18,7 C 19,0 C 76 % 74 % 1016 hPa 0,3 l/m 0,0 km/h (0 Bft) 3 min
27.06.2020 00:52 21,8 C 18,7 C 19,0 C 75 % 74 % 1016 hPa 0,0 l/m 0,0 km/h (0 Bft) 0 min
27.06.2020 00:55 21,8 C 18,6 C 18,9 C 75 % 74 % 1016 hPa 0,0 l/m 0,0 km/h (0 Bft) 0 min
27.06.2020 00:58 21,8 C 18,6 C 18,8 C 75 % 74 % 1016 hPa 0,0 l/m 0,0 km/h (0 Bft) 0 min
27.06.2020 01:01 21,8 C 18,6 C 18,8 C 75 % 74 % 1016 hPa 0,0 l/m 2,1 km/h (1 Bft) 0 min
27.06.2020 01:04 21,8 C 18,6 C 18,7 C 75 % 74 % 1016 hPa 0,0 l/m 0,4 km/h (0 Bft) 0 min
27.06.2020 01:07 21,8 C 18,5 C 18,6 C 75 % 74 % 1016 hPa 0,0 l/m 1,0 km/h (0 Bft) 0 min
27.06.2020 01:10 21,8 C 18,4 C 18,5 C 75 % 74 % 1016 hPa 0,0 l/m 4,8 km/h (1 Bft) 0 min
27.06.2020 01:13 21,8 C 18,1 C 18,4 C 74 % 74 % 1016 hPa 0,0 l/m 10,8 km/h (2 Bft) 0 min
27.06.2020 01:16 21,8 C 18,0 C 18,4 C 74 % 74 % 1016 hPa 0,0 l/m 10,8 km/h (2 Bft) 0 min
27.06.2020 01:19 21,8 C 18,0 C 18,5 C 74 % 74 % 1016 hPa 0,0 l/m 7,5 km/h (2 Bft) 0 min
27.06.2020 01:22 21,8 C 18,0 C 18,4 C 74 % 74 % 1016 hPa 0,0 l/m 10,3 km/h (2 Bft) 0 min
27.06.2020 01:25 21,8 C 18,0 C 18,3 C 74 % 74 % 1016 hPa 0,0 l/m 10,3 km/h (2 Bft) 0 min
27.06.2020 01:28 21,8 C 17,9 C 18,3 C 74 % 74 % 1016 hPa 0,0 l/m 4,3 km/h (1 Bft) 0 min
27.06.2020 01:31 21,8 C 17,8 C 18,3 C 74 % 74 % 1016 hPa 0,0 l/m 1,7 km/h (1 Bft) 0 min
27.06.2020 01:34 21,8 C 17,8 C 18,3 C 74 % 74 % 1016 hPa 0,0 l/m 2,3 km/h (1 Bft) 0 min
27.06.2020 01:37 21,8 C 17,8 C 18,3 C 74 % 74 % 1016 hPa 0,0 l/m 2,3 km/h (1 Bft) 0 min
27.06.2020 01:40 21,8 C 17,8 C 18,2 C 74 % 74 % 1016 hPa 0,0 l/m 7,4 km/h (2 Bft) 0 min
27.06.2020 01:43 21,8 C 17,7 C 18,2 C 73 % 74 % 1016 hPa 0,0 l/m 6,6 km/h (2 Bft) 0 min
27.06.2020 01:46 21,8 C 17,7 C 18,3 C 73 % 74 % 1016 hPa 0,0 l/m 0,7 km/h (0 Bft) 0 min
27.06.2020 01:49 21,8 C 17,6 C 18,2 C 74 % 74 % 1016 hPa 0,0 l/m 1,9 km/h (1 Bft) 0 min
27.06.2020 01:52 21,8 C 17,6 C 18,2 C 73 % 74 % 1016 hPa 0,0 l/m 0,9 km/h (0 Bft) 0 min
27.06.2020 01:55 21,8 C 17,5 C 18,2 C 73 % 74 % 1016 hPa 0,0 l/m 0,6 km/h (0 Bft) 0 min
27.06.2020 01:58 21,8 C 17,5 C 18,1 C 73 % 74 % 1016 hPa 0,0 l/m 0,6 km/h (0 Bft) 0 min
27.06.2020 02:01 21,8 C 17,4 C 18,1 C 73 % 74 % 1016 hPa 0,0 l/m 0,0 km/h (0 Bft) 0 min
27.06.2020 02:04 21,8 C 17,4 C 18,1 C 73 % 74 % 1016 hPa 0,0 l/m 0,0 km/h (0 Bft) 0 min
27.06.2020 02:07 21,8 C 17,4 C 18,1 C 73 % 74 % 1016 hPa 0,0 l/m 0,0 km/h (0 Bft) 0 min
27.06.2020 02:10 21,8 C 17,4 C 18,0 C 73 % 74 % 1016 hPa 0,0 l/m 0,0 km/h (0 Bft) 0 min
27.06.2020 02:13 21,8 C 17,4 C 18,0 C 73 % 74 % 1016 hPa 0,0 l/m 0,0 km/h (0 Bft) 0 min
27.06.2020 02:16 21,8 C 17,3 C 18,1 C 73 % 74 % 1016 hPa 0,0 l/m 0,0 km/h (0 Bft) 0 min
27.06.2020 02:19 21,8 C 17,2 C 18,0 C 73 % 74 % 1016 hPa 0,0 l/m 0,0 km/h (0 Bft) 0 min
27.06.2020 02:22 21,8 C 17,2 C 17,9 C 73 % 74 % 1016 hPa 0,0 l/m 0,0 km/h (0 Bft) 0 min
27.06.2020 02:25 21,8 C 17,2 C 18,0 C 73 % 74 % 1016 hPa 0,0 l/m 1,6 km/h (1 Bft) 0 min
27.06.2020 02:28 21,8 C 17,2 C 18,0 C 73 % 74 % 1016 hPa 0,0 l/m 1,5 km/h (1 Bft) 0 min
27.06.2020 02:31 21,8 C 17,2 C 17,9 C 73 % 74 % 1016 hPa 0,0 l/m 0,1 km/h (0 Bft) 0 min
27.06.2020 02:34 21,8 C 17,2 C 17,9 C 73 % 74 % 1016 hPa 0,0 l/m 0,0 km/h (0 Bft) 0 min
27.06.2020 02:37 21,8 C 17,1 C 17,8 C 73 % 74 % 1016 hPa 0,0 l/m 0,0 km/h (0 Bft) 0 min
27.06.2020 02:40 21,8 C 17,1 C 17,9 C 73 % 74 % 1016 hPa 0,0 l/m 0,0 km/h (0 Bft) 0 min
27.06.2020 02:43 21,8 C 17,1 C 17,9 C 73 % 74 % 1016 hPa 0,0 l/m 0,0 km/h (0 Bft) 0 min
27.06.2020 02:46 21,7 C 17,1 C 17,8 C 73 % 74 % 1016 hPa 0,0 l/m 0,0 km/h (0 Bft) 0 min
27.06.2020 02:49 21,8 C 17,0 C 17,9 C 73 % 74 % 1016 hPa 0,0 l/m 0,1 km/h (0 Bft) 0 min
27.06.2020 02:52 21,8 C 17,0 C 17,8 C 73 % 74 % 1016 hPa 0,0 l/m 0,0 km/h (0 Bft) 0 min
27.06.2020 02:55 21,7 C 16,9 C 17,7 C 73 % 74 % 1016 hPa 0,0 l/m 0,0 km/h (0 Bft) 0 min
27.06.2020 02:58 21,7 C 16,9 C 17,7 C 73 % 74 % 1016 hPa 0,0 l/m 0,0 km/h (0 Bft) 0 min
27.06.2020 03:01 21,7 C 16,8 C 17,6 C 73 % 74 % 1016 hPa 0,0 l/m 0,0 km/h (0 Bft) 0 min
27.06.2020 03:04 21,7 C 16,8 C 17,7 C 73 % 74 % 1016 hPa 0,0 l/m 0,0 km/h (0 Bft) 0 min
27.06.2020 03:07 21,7 C 16,6 C 17,6 C 73 % 74 % 1016 hPa 0,0 l/m 0,2 km/h (0 Bft) 0 min
27.06.2020 03:10 21,7 C 16,6 C 17,6 C 73 % 74 % 1016 hPa 0,0 l/m 0,5 km/h (0 Bft) 0 min
27.06.2020 03:13 21,7 C 16,6 C 17,5 C 73 % 74 % 1016 hPa 0,0 l/m 2,6 km/h (1 Bft) 0 min
27.06.2020 03:16 21,7 C 16,4 C 17,5 C 73 % 74 % 1016 hPa 0,0 l/m 1,2 km/h (1 Bft) 0 min
27.06.2020 03:19 21,7 C 16,5 C 17,5 C 73 % 74 % 1016 hPa 0,0 l/m 0,0 km/h (0 Bft) 0 min
27.06.2020 03:22 21,7 C 16,5 C 17,5 C 73 % 74 % 1016 hPa 0,0 l/m 0,0 km/h (0 Bft) 0 min
27.06.2020 03:25 21,7 C 16,5 C 17,4 C 73 % 74 % 1016 hPa 0,0 l/m 0,0 km/h (0 Bft) 0 min
27.06.2020 03:28 21,7 C 16,4 C 17,5 C 73 % 74 % 1016 hPa 0,3 l/m 0,0 km/h (0 Bft) 3 min
27.06.2020 03:31 21,6 C 16,4 C 17,5 C 73 % 74 % 1016 hPa 0,0 l/m 0,3 km/h (0 Bft) 0 min
27.06.2020 03:34 21,6 C 16,4 C 17,4 C 73 % 74 % 1016 hPa 0,0 l/m 0,0 km/h (0 Bft) 0 min
27.06.2020 03:37 21,6 C 16,4 C 17,4 C 73 % 74 % 1016 hPa 0,0 l/m 0,0 km/h (0 Bft) 0 min
27.06.2020 03:40 21,6 C 16,4 C 17,5 C 73 % 74 % 1016 hPa 0,0 l/m 0,0 km/h (0 Bft) 0 min
27.06.2020 03:43 21,6 C 16,4 C 17,4 C 73 % 74 % 1016 hPa 0,0 l/m 0,0 km/h (0 Bft) 0 min
27.06.2020 03:46 21,6 C 16,4 C 17,4 C 73 % 74 % 1016 hPa 0,0 l/m 0,0 km/h (0 Bft) 0 min
27.06.2020 03:49 21,6 C 16,3 C 17,3 C 73 % 74 % 1016 hPa 0,0 l/m 0,0 km/h (0 Bft) 0 min
27.06.2020 03:52 21,6 C 16,3 C 17,5 C 73 % 74 % 1016 hPa 0,0 l/m 0,0 km/h (0 Bft) 0 min
27.06.2020 03:55 21,6 C 16,3 C 17,3 C 73 % 74 % 1016 hPa 0,0 l/m 0,0 km/h (0 Bft) 0 min
27.06.2020 03:58 21,6 C 16,3 C 17,4 C 73 % 74 % 1016 hPa 0,0 l/m 0,0 km/h (0 Bft) 0 min
27.06.2020 04:01 21,6 C 16,3 C 17,4 C 73 % 74 % 1016 hPa 0,0 l/m 0,0 km/h (0 Bft) 0 min
27.06.2020 04:04 21,6 C 16,2 C 17,3 C 73 % 74 % 1016 hPa 0,0 l/m 1,1 km/h (1 Bft) 0 min
27.06.2020 04:07 21,6 C 16,2 C 17,3 C 74 % 74 % 1016 hPa 0,0 l/m 1,1 km/h (1 Bft) 0 min
27.06.2020 04:10 21,6 C 16,2 C 17,4 C 73 % 74 % 1016 hPa 0,0 l/m 0,0 km/h (0 Bft) 0 min
27.06.2020 04:13 21,6 C 16,2 C 17,3 C 73 % 74 % 1016 hPa 0,0 l/m 0,0 km/h (0 Bft) 0 min
27.06.2020 04:16 21,6 C 16,2 C 17,2 C 73 % 74 % 1016 hPa 0,0 l/m 0,1 km/h (0 Bft) 0 min
27.06.2020 04:19 21,6 C 16,2 C 17,3 C 73 % 74 % 1016 hPa 0,0 l/m 0,0 km/h (0 Bft) 0 min
27.06.2020 04:22 21,6 C 16,2 C 17,3 C 73 % 74 % 1016 hPa 0,0 l/m 0,0 km/h (0 Bft) 0 min
27.06.2020 04:25 21,6 C 16,2 C 17,3 C 73 % 74 % 1016 hPa 0,0 l/m 0,0 km/h (0 Bft) 0 min
27.06.2020 04:28 21,6 C 16,2 C 17,2 C 73 % 74 % 1016 hPa 0,0 l/m 0,0 km/h (0 Bft) 0 min
27.06.2020 04:31 21,6 C 16,2 C 17,3 C 73 % 74 % 1016 hPa 0,0 l/m 0,0 km/h (0 Bft) 0 min
27.06.2020 04:34 21,6 C 16,2 C 17,3 C 73 % 74 % 1016 hPa 0,0 l/m 0,0 km/h (0 Bft) 0 min
27.06.2020 04:37 21,6 C 16,2 C 17,3 C 73 % 74 % 1016 hPa 0,0 l/m 0,0 km/h (0 Bft) 0 min
27.06.2020 04:40 21,6 C 16,2 C 17,2 C 73 % 74 % 1016 hPa 0,0 l/m 0,0 km/h (0 Bft) 0 min
27.06.2020 04:43 21,6 C 16,2 C 17,3 C 73 % 74 % 1016 hPa 0,0 l/m 0,0 km/h (0 Bft) 0 min
27.06.2020 04:46 21,6 C 16,2 C 17,3 C 73 % 74 % 1016 hPa 0,0 l/m 0,3 km/h (0 Bft) 0 min
27.06.2020 04:49 21,6 C 16,1 C 17,1 C 73 % 74 % 1016 hPa 0,0 l/m 2,1 km/h (1 Bft) 0 min
27.06.2020 04:52 21,6 C 16,1 C 17,0 C 73 % 74 % 1016 hPa 0,0 l/m 0,3 km/h (0 Bft) 0 min
27.06.2020 04:55 21,6 C 16,2 C 17,1 C 73 % 74 % 1016 hPa 0,0 l/m 0,0 km/h (0 Bft) 0 min
27.06.2020 04:58 21,6 C 16,2 C 17,2 C 73 % 74 % 1016 hPa 0,0 l/m 0,0 km/h (0 Bft) 0 min
27.06.2020 05:01 21,6 C 16,2 C 17,2 C 73 % 74 % 1016 hPa 0,0 l/m 0,0 km/h (0 Bft) 0 min
27.06.2020 05:04 21,6 C 16,2 C 17,2 C 73 % 74 % 1016 hPa 0,0 l/m 0,0 km/h (0 Bft) 0 min
27.06.2020 05:07 21,6 C 16,2 C 17,3 C 73 % 74 % 1016 hPa 0,0 l/m 0,0 km/h (0 Bft) 0 min
27.06.2020 05:10 21,6 C 16,2 C 17,2 C 73 % 74 % 1016 hPa 0,0 l/m 0,0 km/h (0 Bft) 0 min
27.06.2020 05:13 21,6 C 16,2 C 17,1 C 73 % 74 % 1016 hPa 0,0 l/m 0,8 km/h (0 Bft) 0 min
27.06.2020 05:16 21,6 C 16,2 C 17,1 C 73 % 74 % 1016 hPa 0,0 l/m 0,2 km/h (0 Bft) 0 min
27.06.2020 05:19 21,5 C 16,3 C 17,0 C 73 % 74 % 1016 hPa 0,0 l/m 2,7 km/h (1 Bft) 0 min
27.06.2020 05:22 21,6 C 16,3 C 17,0 C 73 % 74 % 1016 hPa 0,0 l/m 3,6 km/h (1 Bft) 0 min
27.06.2020 05:25 21,5 C 16,3 C 17,3 C 73 % 74 % 1016 hPa 0,0 l/m 3,2 km/h (1 Bft) 0 min
27.06.2020 05:28 21,5 C 16,3 C 17,3 C 73 % 74 % 1016 hPa 0,3 l/m 0,0 km/h (0 Bft) 3 min
27.06.2020 05:31 21,5 C 16,4 C 17,2 C 73 % 74 % 1016 hPa 0,0 l/m 0,4 km/h (0 Bft) 0 min
27.06.2020 05:34 21,5 C 16,4 C 17,2 C 73 % 74 % 1016 hPa 0,0 l/m 0,3 km/h (0 Bft) 0 min
27.06.2020 05:37 21,5 C 16,3 C 17,2 C 73 % 74 % 1016 hPa 0,0 l/m 0,0 km/h (0 Bft) 0 min
27.06.2020 05:40 21,5 C 16,3 C 17,2 C 73 % 74 % 1016 hPa 0,0 l/m 0,0 km/h (0 Bft) 0 min
27.06.2020 05:43 21,6 C 16,3 C 17,2 C 73 % 74 % 1016 hPa 0,0 l/m 0,0 km/h (0 Bft) 0 min
27.06.2020 05:46 21,6 C 16,3 C 17,1 C 73 % 74 % 1016 hPa 0,0 l/m 0,0 km/h (0 Bft) 0 min
27.06.2020 05:49 21,5 C 16,3 C 17,2 C 73 % 74 % 1016 hPa 0,3 l/m 0,0 km/h (0 Bft) 3 min
27.06.2020 05:52 21,6 C 16,3 C 17,3 C 73 % 74 % 1016 hPa 0,0 l/m 0,0 km/h (0 Bft) 0 min
27.06.2020 05:55 21,6 C 16,4 C 17,3 C 73 % 74 % 1016 hPa 0,0 l/m 0,0 km/h (0 Bft) 0 min
27.06.2020 05:58 21,5 C 16,4 C 17,2 C 73 % 74 % 1016 hPa 0,0 l/m 0,0 km/h (0 Bft) 0 min
27.06.2020 06:01 21,6 C 16,4 C 17,2 C 73 % 74 % 1016 hPa 0,0 l/m 0,0 km/h (0 Bft) 0 min
27.06.2020 06:04 21,6 C 16,4 C 17,1 C 73 % 74 % 1016 hPa 0,0 l/m 0,0 km/h (0 Bft) 0 min
27.06.2020 06:07 21,6 C 16,3 C 17,2 C 73 % 74 % 1016 hPa 0,0 l/m 0,0 km/h (0 Bft) 0 min
27.06.2020 06:10 21,5 C 16,4 C 17,2 C 73 % 74 % 1016 hPa 0,0 l/m 0,0 km/h (0 Bft) 0 min
27.06.2020 06:13 21,6 C 16,4 C 17,3 C 73 % 74 % 1016 hPa 0,0 l/m 0,0 km/h (0 Bft) 0 min
27.06.2020 06:16 21,6 C 16,4 C 17,3 C 73 % 74 % 1016 hPa 0,0 l/m 0,0 km/h (0 Bft) 0 min
27.06.2020 06:19 21,6 C 16,5 C 17,3 C 73 % 74 % 1016 hPa 0,0 l/m 0,0 km/h (0 Bft) 0 min
27.06.2020 06:22 21,6 C 16,5 C 17,3 C 73 % 74 % 1016 hPa 0,0 l/m 0,0 km/h (0 Bft) 0 min
27.06.2020 06:25 21,6 C 16,6 C 17,2 C 73 % 74 % 1016 hPa 0,0 l/m 0,0 km/h (0 Bft) 0 min
27.06.2020 06:28 21,6 C 16,6 C 17,3 C 73 % 74 % 1016 hPa 0,0 l/m 0,1 km/h (0 Bft) 0 min
27.06.2020 06:31 21,5 C 16,6 C 17,3 C 73 % 74 % 1016 hPa 0,0 l/m 0,3 km/h (0 Bft) 0 min
27.06.2020 06:34 21,5 C 16,6 C 17,3 C 73 % 74 % 1016 hPa 0,0 l/m 2,0 km/h (1 Bft) 0 min
27.06.2020 06:37 21,5 C 16,6 C 17,3 C 73 % 74 % 1016 hPa 0,0 l/m 4,5 km/h (1 Bft) 0 min
27.06.2020 06:40 21,5 C 16,6 C 17,4 C 73 % 74 % 1016 hPa 0,0 l/m 2,1 km/h (1 Bft) 0 min
27.06.2020 06:43 21,5 C 16,7 C 17,4 C 73 % 74 % 1016 hPa 0,0 l/m 0,0 km/h (0 Bft) 0 min
27.06.2020 06:46 21,5 C 16,7 C 17,3 C 73 % 74 % 1016 hPa 0,0 l/m 2,5 km/h (1 Bft) 0 min
27.06.2020 06:49 21,5 C 16,8 C 17,3 C 73 % 74 % 1016 hPa 0,0 l/m 2,6 km/h (1 Bft) 0 min
27.06.2020 06:52 21,5 C 16,8 C 17,4 C 73 % 74 % 1016 hPa 0,0 l/m 2,3 km/h (1 Bft) 0 min
27.06.2020 06:55 21,5 C 16,8 C 17,3 C 73 % 74 % 1016 hPa 0,0 l/m 0,4 km/h (0 Bft) 0 min
27.06.2020 06:58 21,5 C 16,8 C 17,4 C 73 % 74 % 1016 hPa 0,0 l/m 0,0 km/h (0 Bft) 0 min
27.06.2020 07:01 21,5 C 16,8 C 17,3 C 73 % 74 % 1016 hPa 0,0 l/m 0,0 km/h (0 Bft) 0 min
27.06.2020 07:04 21,5 C 16,8 C 17,3 C 73 % 74 % 1016 hPa 0,0 l/m 0,0 km/h (0 Bft) 0 min
27.06.2020 07:07 21,5 C 16,8 C 17,3 C 73 % 74 % 1016 hPa 0,0 l/m 0,0 km/h (0 Bft) 0 min
27.06.2020 07:10 21,5 C 16,8 C 17,3 C 73 % 74 % 1016 hPa 0,0 l/m 0,0 km/h (0 Bft) 0 min
27.06.2020 07:13 21,5 C 16,9 C 17,3 C 73 % 74 % 1016 hPa 0,0 l/m 0,0 km/h (0 Bft) 0 min
27.06.2020 07:16 21,6 C 16,9 C 17,5 C 73 % 74 % 1016 hPa 0,0 l/m 0,0 km/h (0 Bft) 0 min
27.06.2020 07:19 21,5 C 16,9 C 17,4 C 73 % 74 % 1016 hPa 0,0 l/m 0,0 km/h (0 Bft) 0 min
27.06.2020 07:22 21,5 C 17,0 C 17,5 C 73 % 74 % 1016 hPa 0,0 l/m 0,1 km/h (0 Bft) 0 min
27.06.2020 07:25 21,5 C 17,1 C 17,5 C 73 % 74 % 1016 hPa 0,0 l/m 0,1 km/h (0 Bft) 0 min
27.06.2020 07:28 21,6 C 17,1 C 17,6 C 73 % 74 % 1016 hPa 0,0 l/m 0,0 km/h (0 Bft) 0 min
27.06.2020 07:31 21,6 C 17,0 C 17,5 C 73 % 74 % 1016 hPa 0,0 l/m 0,0 km/h (0 Bft) 0 min
27.06.2020 07:34 21,5 C 17,1 C 17,5 C 73 % 74 % 1016 hPa 0,0 l/m 0,0 km/h (0 Bft) 0 min
27.06.2020 07:37 21,5 C 17,2 C 17,6 C 73 % 74 % 1016 hPa 0,0 l/m 0,0 km/h (0 Bft) 0 min
27.06.2020 07:40 21,5 C 17,4 C 17,6 C 73 % 74 % 1016 hPa 0,0 l/m 0,0 km/h (0 Bft) 0 min
27.06.2020 07:43 21,6 C 17,6 C 17,6 C 73 % 74 % 1016 hPa 0,0 l/m 0,0 km/h (0 Bft) 0 min
27.06.2020 07:46 21,5 C 17,7 C 17,7 C 72 % 74 % 1016 hPa 0,0 l/m 0,0 km/h (0 Bft) 0 min
27.06.2020 07:49 21,6 C 17,9 C 17,9 C 72 % 74 % 1016 hPa 0,0 l/m 0,0 km/h (0 Bft) 0 min
27.06.2020 07:52 21,6 C 18,1 C 17,9 C 72 % 74 % 1016 hPa 0,0 l/m 0,0 km/h (0 Bft) 0 min
27.06.2020 07:55 21,6 C 18,3 C 18,1 C 72 % 74 % 1016 hPa 0,0 l/m 0,3 km/h (0 Bft) 0 min
27.06.2020 07:58 21,6 C 18,4 C 18,1 C 72 % 74 % 1016 hPa 0,0 l/m 1,5 km/h (1 Bft) 0 min
27.06.2020 08:01 21,6 C 18,3 C 18,0 C 72 % 74 % 1016 hPa 0,0 l/m 4,3 km/h (1 Bft) 0 min
27.06.2020 08:04 21,6 C 18,2 C 18,1 C 72 % 74 % 1016 hPa 0,0 l/m 1,5 km/h (1 Bft) 0 min
27.06.2020 08:07 21,6 C 18,1 C 18,1 C 72 % 74 % 1016 hPa 0,0 l/m 0,0 km/h (0 Bft) 0 min
27.06.2020 08:10 21,6 C 18,1 C 18,1 C 72 % 74 % 1016 hPa 0,0 l/m 0,1 km/h (0 Bft) 0 min
27.06.2020 08:13 21,6 C 18,1 C 18,1 C 72 % 74 % 1017 hPa 0,0 l/m 3,6 km/h (1 Bft) 0 min
27.06.2020 08:16 21,6 C 18,2 C 18,1 C 72 % 74 % 1017 hPa 0,0 l/m 0,9 km/h (0 Bft) 0 min
27.06.2020 08:19 21,6 C 18,2 C 18,1 C 72 % 74 % 1016 hPa 0,0 l/m 0,3 km/h (0 Bft) 0 min
27.06.2020 08:22 21,6 C 18,1 C 18,2 C 72 % 74 % 1016 hPa 0,0 l/m 0,3 km/h (0 Bft) 0 min
27.06.2020 08:25 21,6 C 18,1 C 18,2 C 72 % 74 % 1017 hPa 0,0 l/m 0,0 km/h (0 Bft) 0 min
27.06.2020 08:28 21,6 C 18,1 C 18,1 C 72 % 74 % 1017 hPa 0,0 l/m 0,1 km/h (0 Bft) 0 min
27.06.2020 08:31 21,6 C 18,3 C 18,1 C 72 % 74 % 1017 hPa 0,0 l/m 0,7 km/h (0 Bft) 0 min
27.06.2020 08:34 21,6 C 18,3 C 18,1 C 72 % 74 % 1016 hPa 0,0 l/m 2,9 km/h (1 Bft) 0 min
27.06.2020 08:37 21,6 C 18,6 C 18,3 C 72 % 74 % 1016 hPa 0,0 l/m 2,0 km/h (1 Bft) 0 min
27.06.2020 08:40 21,6 C 18,8 C 18,3 C 72 % 74 % 1016 hPa 0,0 l/m 2,7 km/h (1 Bft) 0 min
27.06.2020 08:43 21,6 C 18,8 C 18,2 C 72 % 74 % 1016 hPa 0,0 l/m 0,4 km/h (0 Bft) 0 min
27.06.2020 08:46 21,6 C 18,8 C 18,3 C 72 % 74 % 1016 hPa 0,0 l/m 4,6 km/h (1 Bft) 0 min
27.06.2020 08:49 21,6 C 19,0 C 18,3 C 72 % 74 % 1016 hPa 0,0 l/m 4,0 km/h (1 Bft) 0 min
27.06.2020 08:52 21,6 C 19,0 C 18,5 C 72 % 74 % 1016 hPa 0,0 l/m 4,3 km/h (1 Bft) 0 min
27.06.2020 08:55 21,6 C 19,3 C 18,4 C 72 % 74 % 1016 hPa 0,0 l/m 6,3 km/h (2 Bft) 0 min
27.06.2020 08:58 21,6 C 19,4 C 18,4 C 72 % 74 % 1016 hPa 0,0 l/m 7,8 km/h (2 Bft) 0 min
27.06.2020 09:01 21,6 C 19,3 C 18,5 C 72 % 74 % 1016 hPa 0,0 l/m 0,6 km/h (0 Bft) 0 min
27.06.2020 09:04 21,6 C 19,4 C 18,6 C 72 % 74 % 1017 hPa 0,0 l/m 3,4 km/h (1 Bft) 0 min
27.06.2020 09:07 21,6 C 19,5 C 18,7 C 72 % 74 % 1017 hPa 0,0 l/m 5,0 km/h (1 Bft) 0 min
27.06.2020 09:10 21,6 C 19,5 C 18,7 C 72 % 74 % 1017 hPa 0,0 l/m 6,7 km/h (2 Bft) 0 min
27.06.2020 09:13 21,6 C 19,6 C 18,6 C 72 % 74 % 1017 hPa 0,0 l/m 3,6 km/h (1 Bft) 0 min
27.06.2020 09:16 21,6 C 19,6 C 18,9 C 72 % 74 % 1017 hPa 0,0 l/m 3,7 km/h (1 Bft) 0 min
27.06.2020 09:19 21,7 C 19,8 C 19,1 C 72 % 74 % 1017 hPa 0,0 l/m 5,0 km/h (1 Bft) 0 min
27.06.2020 09:22 21,7 C 19,9 C 19,1 C 72 % 74 % 1017 hPa 0,0 l/m 0,3 km/h (0 Bft) 0 min
27.06.2020 09:25 21,7 C 20,0 C 18,9 C 72 % 74 % 1017 hPa 0,0 l/m 4,3 km/h (1 Bft) 0 min
27.06.2020 09:28 21,7 C 20,1 C 19,0 C 72 % 74 % 1017 hPa 0,0 l/m 5,0 km/h (1 Bft) 0 min
27.06.2020 09:31 21,8 C 20,3 C 19,0 C 72 % 74 % 1017 hPa 0,0 l/m 0,5 km/h (0 Bft) 0 min
27.06.2020 09:34 21,7 C 20,3 C 19,0 C 72 % 74 % 1017 hPa 0,0 l/m 0,7 km/h (0 Bft) 0 min
27.06.2020 09:37 21,7 C 20,2 C 19,3 C 71 % 74 % 1017 hPa 0,0 l/m 0,7 km/h (0 Bft) 0 min
27.06.2020 09:40 21,8 C 20,4 C 19,1 C 72 % 74 % 1017 hPa 0,0 l/m 4,1 km/h (1 Bft) 0 min
27.06.2020 09:43 21,8 C 20,4 C 19,1 C 72 % 74 % 1017 hPa 0,0 l/m 0,4 km/h (0 Bft) 0 min
27.06.2020 09:46 21,8 C 20,5 C 19,2 C 72 % 74 % 1017 hPa 0,0 l/m 0,4 km/h (0 Bft) 0 min
27.06.2020 09:49 21,8 C 20,7 C 19,5 C 72 % 74 % 1017 hPa 0,0 l/m 6,2 km/h (2 Bft) 0 min
27.06.2020 09:52 21,8 C 20,8 C 19,4 C 71 % 74 % 1017 hPa 0,0 l/m 3,8 km/h (1 Bft) 0 min
27.06.2020 09:55 21,8 C 20,8 C 19,3 C 71 % 74 % 1017 hPa 0,0 l/m 2,8 km/h (1 Bft) 0 min
27.06.2020 09:58 21,8 C 20,9 C 19,5 C 71 % 74 % 1017 hPa 0,0 l/m 0,6 km/h (0 Bft) 0 min
27.06.2020 10:01 21,8 C 21,0 C 19,5 C 71 % 74 % 1017 hPa 0,0 l/m 2,4 km/h (1 Bft) 0 min
27.06.2020 10:04 21,8 C 21,0 C 19,4 C 71 % 74 % 1016 hPa 0,0 l/m 0,0 km/h (0 Bft) 0 min
27.06.2020 10:07 21,8 C 21,2 C 19,7 C 71 % 74 % 1017 hPa 0,0 l/m 6,1 km/h (2 Bft) 0 min
27.06.2020 10:10 21,8 C 21,3 C 19,8 C 70 % 74 % 1017 hPa 0,0 l/m 5,9 km/h (2 Bft) 0 min
27.06.2020 10:13 21,8 C 21,4 C 19,8 C 70 % 74 % 1017 hPa 0,0 l/m 0,3 km/h (0 Bft) 0 min
27.06.2020 10:16 21,8 C 21,5 C 19,5 C 70 % 74 % 1017 hPa 0,0 l/m 0,3 km/h (0 Bft) 0 min
27.06.2020 10:19 21,8 C 21,6 C 19,6 C 69 % 74 % 1017 hPa 0,0 l/m 6,7 km/h (2 Bft) 0 min
27.06.2020 10:22 21,8 C 21,7 C 19,9 C 69 % 74 % 1017 hPa 0,0 l/m 3,0 km/h (1 Bft) 0 min
27.06.2020 10:25 21,8 C 21,8 C 19,8 C 69 % 74 % 1017 hPa 0,0 l/m 4,5 km/h (1 Bft) 0 min
27.06.2020 10:28 21,8 C 21,9 C 20,0 C 69 % 74 % 1016 hPa 0,0 l/m 4,6 km/h (1 Bft) 0 min
27.06.2020 10:31 21,9 C 22,0 C 20,3 C 68 % 74 % 1016 hPa 0,0 l/m 3,6 km/h (1 Bft) 0 min
27.06.2020 10:34 21,8 C 22,1 C 20,3 C 68 % 74 % 1016 hPa 0,0 l/m 6,0 km/h (2 Bft) 0 min
27.06.2020 10:37 21,8 C 22,2 C 20,7 C 68 % 74 % 1016 hPa 0,0 l/m 3,5 km/h (1 Bft) 0 min
27.06.2020 10:40 21,8 C 22,3 C 20,5 C 69 % 74 % 1016 hPa 0,0 l/m 0,6 km/h (0 Bft) 0 min
27.06.2020 10:43 21,8 C 22,3 C 20,4 C 69 % 74 % 1016 hPa 0,0 l/m 0,6 km/h (0 Bft) 0 min
27.06.2020 10:46 21,9 C 22,3 C 20,7 C 68 % 74 % 1016 hPa 0,0 l/m 2,4 km/h (1 Bft) 0 min
27.06.2020 10:49 21,9 C 22,4 C 20,7 C 67 % 74 % 1016 hPa 0,0 l/m 3,4 km/h (1 Bft) 0 min
27.06.2020 10:52 21,9 C 22,4 C 20,5 C 67 % 74 % 1016 hPa 0,0 l/m 3,0 km/h (1 Bft) 0 min
27.06.2020 10:55 21,9 C 22,5 C 20,5 C 68 % 74 % 1016 hPa 0,0 l/m 0,6 km/h (0 Bft) 0 min
27.06.2020 10:58 21,9 C 22,5 C 20,5 C 68 % 74 % 1016 hPa 0,0 l/m 2,2 km/h (1 Bft) 0 min
27.06.2020 11:01 21,8 C 22,7 C 20,9 C 66 % 74 % 1017 hPa 0,0 l/m 1,0 km/h (0 Bft) 0 min
27.06.2020 11:04 21,8 C 22,9 C 20,8 C 66 % 74 % 1016 hPa 0,0 l/m 11,6 km/h (2 Bft) 0 min
27.06.2020 11:07 21,9 C 23,1 C 21,2 C 66 % 74 % 1016 hPa 0,0 l/m 9,1 km/h (2 Bft) 0 min
27.06.2020 11:10 21,8 C 23,0 C 21,0 C 66 % 74 % 1016 hPa 0,0 l/m 4,2 km/h (1 Bft) 0 min
27.06.2020 11:13 21,9 C 23,0 C 21,0 C 66 % 74 % 1016 hPa 0,0 l/m 1,0 km/h (0 Bft) 0 min
27.06.2020 11:16 21,9 C 23,2 C 20,5 C 67 % 74 % 1016 hPa 0,0 l/m 8,5 km/h (2 Bft) 0 min
27.06.2020 11:19 21,9 C 23,3 C 21,1 C 67 % 74 % 1016 hPa 0,0 l/m 6,5 km/h (2 Bft) 0 min
27.06.2020 11:22 21,9 C 23,4 C 21,3 C 67 % 74 % 1016 hPa 0,0 l/m 6,0 km/h (2 Bft) 0 min
27.06.2020 11:25 21,9 C 23,4 C 21,0 C 67 % 74 % 1016 hPa 0,0 l/m 1,4 km/h (1 Bft) 0 min
27.06.2020 11:28 21,9 C 23,4 C 21,0 C 66 % 74 % 1016 hPa 0,0 l/m 1,4 km/h (1 Bft) 0 min
27.06.2020 11:31 21,9 C 23,5 C 21,3 C 66 % 74 % 1016 hPa 0,0 l/m 4,0 km/h (1 Bft) 0 min
27.06.2020 11:34 21,9 C 23,6 C 21,6 C 65 % 74 % 1016 hPa 0,0 l/m 0,8 km/h (0 Bft) 0 min
27.06.2020 11:37 21,9 C 23,8 C 21,6 C 65 % 74 % 1016 hPa 0,0 l/m 3,2 km/h (1 Bft) 0 min
27.06.2020 11:40 22,0 C 24,0 C 21,3 C 66 % 74 % 1016 hPa 0,0 l/m 3,9 km/h (1 Bft) 0 min
27.06.2020 11:43 22,0 C 24,0 C 21,9 C 65 % 74 % 1016 hPa 0,0 l/m 11,9 km/h (2 Bft) 0 min
27.06.2020 11:46 22,0 C 24,1 C 22,0 C 66 % 74 % 1016 hPa 0,0 l/m 5,6 km/h (1 Bft) 0 min
27.06.2020 11:49 22,0 C 24,0 C 21,4 C 65 % 74 % 1016 hPa 0,0 l/m 5,6 km/h (1 Bft) 0 min
27.06.2020 11:52 22,0 C 24,2 C 22,1 C 66 % 74 % 1016 hPa 0,0 l/m 6,4 km/h (2 Bft) 0 min
27.06.2020 11:55 22,0 C 24,4 C 22,6 C 64 % 74 % 1016 hPa 0,0 l/m 5,6 km/h (1 Bft) 0 min
27.06.2020 11:58 22,0 C 24,5 C 22,3 C 65 % 74 % 1016 hPa 0,0 l/m 1,1 km/h (1 Bft) 0 min
27.06.2020 12:01 22,0 C 24,6 C 22,7 C 64 % 74 % 1016 hPa 0,0 l/m 1,7 km/h (1 Bft) 0 min
27.06.2020 12:04 22,0 C 24,6 C 21,9 C 63 % 74 % 1016 hPa 0,0 l/m 4,2 km/h (1 Bft) 0 min
27.06.2020 12:07 22,0 C 24,6 C 21,9 C 63 % 74 % 1016 hPa 0,0 l/m 3,1 km/h (1 Bft) 0 min
27.06.2020 12:10 22,0 C 24,8 C 21,9 C 64 % 74 % 1016 hPa 0,0 l/m 8,7 km/h (2 Bft) 0 min
27.06.2020 12:13 22,1 C 24,8 C 21,9 C 63 % 74 % 1017 hPa 0,0 l/m 1,8 km/h (1 Bft) 0 min
27.06.2020 12:16 22,0 C 24,8 C 21,6 C 64 % 74 % 1016 hPa 0,0 l/m 6,8 km/h (2 Bft) 0 min
27.06.2020 12:19 22,0 C 24,8 C 21,6 C 64 % 74 % 1016 hPa 0,0 l/m 6,8 km/h (2 Bft) 0 min
27.06.2020 12:22 22,1 C 25,0 C 21,8 C 64 % 74 % 1016 hPa 0,0 l/m 8,1 km/h (2 Bft) 0 min
27.06.2020 12:25 22,0 C 25,0 C 22,7 C 64 % 74 % 1016 hPa 0,0 l/m 11,6 km/h (2 Bft) 0 min
27.06.2020 12:28 22,0 C 25,3 C 22,8 C 62 % 74 % 1016 hPa 0,0 l/m 3,8 km/h (1 Bft) 0 min
27.06.2020 12:31 22,1 C 25,2 C 22,9 C 62 % 74 % 1016 hPa 0,0 l/m 2,7 km/h (1 Bft) 0 min
27.06.2020 12:34 22,1 C 25,3 C 22,9 C 62 % 74 % 1016 hPa 0,0 l/m 5,9 km/h (2 Bft) 0 min
27.06.2020 12:37 22,0 C 25,5 C 23,5 C 64 % 74 % 1016 hPa 0,0 l/m 4,6 km/h (1 Bft) 0 min
27.06.2020 12:40 22,0 C 25,5 C 22,7 C 64 % 74 % 1016 hPa 0,0 l/m 1,5 km/h (1 Bft) 0 min
27.06.2020 12:43 22,0 C 25,7 C 22,4 C 62 % 74 % 1016 hPa 0,0 l/m 5,2 km/h (1 Bft) 0 min
27.06.2020 12:46 22,0 C 25,6 C 22,9 C 63 % 74 % 1016 hPa 0,0 l/m 4,9 km/h (1 Bft) 0 min
27.06.2020 12:49 22,0 C 25,6 C 23,5 C 63 % 74 % 1016 hPa 0,0 l/m 0,9 km/h (0 Bft) 0 min
27.06.2020 12:52 22,0 C 25,7 C 23,1 C 62 % 74 % 1016 hPa 0,0 l/m 5,9 km/h (2 Bft) 0 min
27.06.2020 12:55 22,0 C 25,8 C 23,6 C 61 % 74 % 1016 hPa 0,0 l/m 7,7 km/h (2 Bft) 0 min
27.06.2020 12:58 22,0 C 25,9 C 23,9 C 61 % 74 % 1016 hPa 0,0 l/m 4,5 km/h (1 Bft) 0 min
27.06.2020 13:01 22,0 C 25,9 C 22,9 C 60 % 74 % 1016 hPa 0,0 l/m 4,5 km/h (1 Bft) 0 min
27.06.2020 13:04 22,0 C 26,0 C 23,5 C 62 % 74 % 1016 hPa 0,0 l/m 3,7 km/h (1 Bft) 0 min
27.06.2020 13:07 22,0 C 26,0 C 23,1 C 60 % 74 % 1016 hPa 0,0 l/m 10,4 km/h (2 Bft) 0 min
27.06.2020 13:10 22,0 C 26,2 C 23,6 C 61 % 74 % 1016 hPa 0,0 l/m 7,0 km/h (2 Bft) 0 min
27.06.2020 13:13 22,0 C 26,2 C 23,4 C 61 % 74 % 1016 hPa 0,0 l/m 7,0 km/h (2 Bft) 0 min
27.06.2020 13:16 22,0 C 26,2 C 23,8 C 60 % 74 % 1016 hPa 0,0 l/m 7,0 km/h (2 Bft) 0 min
27.06.2020 13:19 22,0 C 26,3 C 23,8 C 59 % 74 % 1016 hPa 0,0 l/m 7,0 km/h (2 Bft) 0 min
27.06.2020 13:22 22,0 C 26,3 C 24,2 C 59 % 74 % 1016 hPa 0,0 l/m 4,2 km/h (1 Bft) 0 min
27.06.2020 13:25 22,0 C 26,2 C 23,2 C 58 % 74 % 1016 hPa 0,0 l/m 4,2 km/h (1 Bft) 0 min
27.06.2020 13:28 22,0 C 26,3 C 23,2 C 61 % 74 % 1016 hPa 0,0 l/m 4,2 km/h (1 Bft) 0 min
27.06.2020 13:31 22,0 C 26,4 C 23,6 C 58 % 74 % 1016 hPa 0,0 l/m 4,2 km/h (1 Bft) 0 min
27.06.2020 13:34 22,0 C 26,6 C 23,6 C 58 % 74 % 1016 hPa 0,0 l/m 4,2 km/h (1 Bft) 0 min
27.06.2020 13:37 22,0 C 26,5 C 23,1 C 59 % 74 % 1016 hPa 0,0 l/m 4,2 km/h (1 Bft) 0 min
27.06.2020 13:40 22,0 C 26,5 C 23,6 C 57 % 74 % 1016 hPa 0,0 l/m 4,2 km/h (1 Bft) 0 min
27.06.2020 13:43 22,0 C 26,6 C 24,4 C 57 % 74 % 1016 hPa 0,0 l/m 0,5 km/h (0 Bft) 0 min
27.06.2020 13:46 22,0 C 26,7 C 23,0 C 58 % 74 % 1016 hPa 0,0 l/m 0,4 km/h (0 Bft) 0 min
27.06.2020 13:49 22,1 C 26,9 C 24,3 C 56 % 74 % 1016 hPa 0,0 l/m 7,4 km/h (2 Bft) 0 min
27.06.2020 13:52 22,1 C 26,9 C 23,7 C 56 % 74 % 1016 hPa 0,0 l/m 6,2 km/h (2 Bft) 0 min
27.06.2020 13:55 22,1 C 27,2 C 24,0 C 57 % 74 % 1016 hPa 0,0 l/m 6,2 km/h (2 Bft) 0 min
27.06.2020 13:58 22,1 C 27,2 C 24,0 C 57 % 74 % 1016 hPa 0,0 l/m 8,7 km/h (2 Bft) 0 min
27.06.2020 14:01 22,2 C 27,2 C 24,4 C 55 % 74 % 1016 hPa 0,0 l/m 10,5 km/h (2 Bft) 0 min
27.06.2020 14:04 22,1 C 27,3 C 24,4 C 54 % 74 % 1016 hPa 0,0 l/m 1,5 km/h (1 Bft) 0 min
27.06.2020 14:07 22,1 C 27,3 C 24,1 C 56 % 74 % 1016 hPa 0,0 l/m 4,3 km/h (1 Bft) 0 min
27.06.2020 14:10 22,1 C 27,5 C 24,7 C 54 % 74 % 1016 hPa 0,0 l/m 7,4 km/h (2 Bft) 0 min
27.06.2020 14:13 22,1 C 27,7 C 24,8 C 54 % 74 % 1016 hPa 0,0 l/m 5,4 km/h (1 Bft) 0 min
27.06.2020 14:16 22,2 C 27,7 C 24,2 C 54 % 74 % 1016 hPa 0,0 l/m 2,8 km/h (1 Bft) 0 min
27.06.2020 14:19 22,1 C 27,4 C 24,3 C 55 % 74 % 1016 hPa 0,0 l/m 3,8 km/h (1 Bft) 0 min
27.06.2020 14:22 22,2 C 27,6 C 24,7 C 55 % 74 % 1016 hPa 0,0 l/m 9,8 km/h (2 Bft) 0 min
27.06.2020 14:25 22,2 C 27,6 C 24,5 C 52 % 74 % 1016 hPa 0,0 l/m 4,3 km/h (1 Bft) 0 min
27.06.2020 14:28 22,1 C 27,6 C 24,5 C 51 % 74 % 1016 hPa 0,0 l/m 5,4 km/h (1 Bft) 0 min
27.06.2020 14:31 22,1 C 27,7 C 24,7 C 54 % 74 % 1016 hPa 0,0 l/m 11,2 km/h (2 Bft) 0 min
27.06.2020 14:34 22,1 C 27,8 C 24,4 C 55 % 74 % 1016 hPa 0,0 l/m 5,0 km/h (1 Bft) 0 min
27.06.2020 14:37 22,1 C 27,8 C 25,0 C 55 % 74 % 1016 hPa 0,0 l/m 7,6 km/h (2 Bft) 0 min
27.06.2020 14:40 22,2 C 27,9 C 25,0 C 51 % 74 % 1016 hPa 0,0 l/m 5,6 km/h (1 Bft) 0 min
27.06.2020 14:43 22,1 C 28,0 C 25,4 C 51 % 74 % 1016 hPa 0,0 l/m 5,7 km/h (1 Bft) 0 min
27.06.2020 14:46 22,1 C 28,1 C 24,9 C 54 % 74 % 1016 hPa 0,0 l/m 5,9 km/h (2 Bft) 0 min
27.06.2020 14:49 22,1 C 28,1 C 24,3 C 55 % 74 % 1016 hPa 0,0 l/m 3,9 km/h (1 Bft) 0 min
27.06.2020 14:52 22,2 C 28,2 C 25,2 C 54 % 74 % 1016 hPa 0,0 l/m 2,7 km/h (1 Bft) 0 min
27.06.2020 14:55 22,2 C 28,2 C 25,3 C 50 % 74 % 1016 hPa 0,0 l/m 5,9 km/h (2 Bft) 0 min
27.06.2020 14:58 22,2 C 28,0 C 24,7 C 50 % 74 % 1015 hPa 0,0 l/m 0,6 km/h (0 Bft) 0 min
27.06.2020 15:01 22,2 C 28,0 C 25,5 C 51 % 74 % 1015 hPa 0,0 l/m 9,4 km/h (2 Bft) 0 min
27.06.2020 15:04 22,2 C 27,8 C 24,9 C 51 % 74 % 1015 hPa 0,0 l/m 9,6 km/h (2 Bft) 0 min
27.06.2020 15:07 22,2 C 27,9 C 24,9 C 51 % 74 % 1015 hPa 0,0 l/m 0,3 km/h (0 Bft) 0 min
27.06.2020 15:10 22,2 C 27,9 C 24,4 C 53 % 74 % 1015 hPa 0,0 l/m 6,8 km/h (2 Bft) 0 min
27.06.2020 15:13 22,1 C 28,0 C 25,3 C 53 % 74 % 1015 hPa 0,0 l/m 9,6 km/h (2 Bft) 0 min
27.06.2020 15:16 22,2 C 28,0 C 24,9 C 53 % 74 % 1015 hPa 0,0 l/m 9,6 km/h (2 Bft) 0 min
27.06.2020 15:19 22,2 C 28,1 C 24,9 C 53 % 74 % 1015 hPa 0,0 l/m 8,1 km/h (2 Bft) 0 min
27.06.2020 15:22 22,2 C 28,0 C 25,4 C 53 % 74 % 1015 hPa 0,0 l/m 10,1 km/h (2 Bft) 0 min
27.06.2020 15:25 22,2 C 27,7 C 24,6 C 51 % 74 % 1015 hPa 0,0 l/m 12,8 km/h (3 Bft) 0 min
27.06.2020 15:28 22,2 C 27,5 C 24,5 C 53 % 74 % 1015 hPa 0,0 l/m 8,3 km/h (2 Bft) 0 min
27.06.2020 15:31 22,1 C 27,3 C 24,8 C 53 % 74 % 1015 hPa 0,0 l/m 3,7 km/h (1 Bft) 0 min
27.06.2020 15:34 22,1 C 27,2 C 24,8 C 54 % 74 % 1015 hPa 0,0 l/m 13,2 km/h (3 Bft) 0 min
27.06.2020 15:37 22,2 C 27,2 C 24,5 C 54 % 74 % 1015 hPa 0,0 l/m 12,0 km/h (2 Bft) 0 min
27.06.2020 15:40 22,1 C 27,2 C 24,5 C 54 % 74 % 1015 hPa 0,0 l/m 10,8 km/h (2 Bft) 0 min
27.06.2020 15:43 22,1 C 27,1 C 24,8 C 55 % 74 % 1015 hPa 0,0 l/m 5,4 km/h (1 Bft) 0 min
27.06.2020 15:46 22,1 C 27,1 C 24,4 C 55 % 74 % 1015 hPa 0,0 l/m 8,0 km/h (2 Bft) 0 min
27.06.2020 15:49 22,1 C 27,0 C 24,6 C 55 % 74 % 1015 hPa 0,0 l/m 2,9 km/h (1 Bft) 0 min
27.06.2020 15:52 22,1 C 27,0 C 24,3 C 55 % 74 % 1015 hPa 0,0 l/m 2,5 km/h (1 Bft) 0 min
27.06.2020 15:55 22,1 C 27,0 C 24,1 C 57 % 74 % 1015 hPa 0,0 l/m 0,6 km/h (0 Bft) 0 min
27.06.2020 15:58 22,1 C 27,0 C 24,0 C 58 % 74 % 1015 hPa 0,0 l/m 0,3 km/h (0 Bft) 0 min
27.06.2020 16:01 22,1 C 26,9 C 24,0 C 57 % 74 % 1015 hPa 0,0 l/m 9,2 km/h (2 Bft) 0 min
27.06.2020 16:04 22,1 C 26,9 C 24,1 C 57 % 74 % 1015 hPa 0,0 l/m 3,4 km/h (1 Bft) 0 min
27.06.2020 16:07 22,1 C 26,8 C 24,0 C 57 % 74 % 1015 hPa 0,0 l/m 7,0 km/h (2 Bft) 0 min
27.06.2020 16:10 22,1 C 26,8 C 24,0 C 58 % 74 % 1015 hPa 0,0 l/m 2,1 km/h (1 Bft) 0 min
27.06.2020 16:13 22,2 C 26,9 C 23,9 C 58 % 74 % 1015 hPa 0,0 l/m 5,2 km/h (1 Bft) 0 min
27.06.2020 16:16 22,2 C 26,9 C 24,4 C 56 % 74 % 1015 hPa 0,0 l/m 2,7 km/h (1 Bft) 0 min
27.06.2020 16:19 22,2 C 27,3 C 24,8 C 56 % 74 % 1015 hPa 0,0 l/m 0,4 km/h (0 Bft) 0 min
27.06.2020 16:22 22,2 C 27,6 C 25,3 C 54 % 74 % 1015 hPa 0,0 l/m 4,3 km/h (1 Bft) 0 min
27.06.2020 16:25 22,3 C 27,9 C 25,0 C 55 % 74 % 1015 hPa 0,0 l/m 4,0 km/h (1 Bft) 0 min
27.06.2020 16:28 22,2 C 28,1 C 25,1 C 54 % 74 % 1015 hPa 0,0 l/m 6,4 km/h (2 Bft) 0 min
27.06.2020 16:31 22,3 C 28,1 C 25,2 C 54 % 74 % 1015 hPa 0,0 l/m 3,1 km/h (1 Bft) 0 min
27.06.2020 16:34 22,3 C 28,1 C 25,3 C 54 % 74 % 1015 hPa 0,0 l/m 0,6 km/h (0 Bft) 0 min
27.06.2020 16:37 22,4 C 28,1 C 25,0 C 52 % 74 % 1015 hPa 0,0 l/m 1,3 km/h (1 Bft) 0 min
27.06.2020 16:40 22,4 C 28,1 C 25,5 C 50 % 74 % 1015 hPa 0,0 l/m 6,8 km/h (2 Bft) 0 min
27.06.2020 16:43 22,4 C 28,2 C 25,5 C 50 % 74 % 1015 hPa 0,0 l/m 2,2 km/h (1 Bft) 0 min
27.06.2020 16:46 22,3 C 28,2 C 25,4 C 49 % 74 % 1015 hPa 0,0 l/m 2,2 km/h (1 Bft) 0 min
27.06.2020 16:49 22,3 C 28,4 C 25,3 C 52 % 74 % 1015 hPa 0,0 l/m 0,3 km/h (0 Bft) 0 min
27.06.2020 16:52 22,3 C 28,5 C 25,1 C 51 % 74 % 1014 hPa 0,0 l/m 0,9 km/h (0 Bft) 0 min
27.06.2020 16:55 22,3 C 28,5 C 25,1 C 51 % 74 % 1014 hPa 0,0 l/m 3,6 km/h (1 Bft) 0 min
27.06.2020 16:58 22,4 C 28,6 C 25,4 C 49 % 74 % 1014 hPa 0,0 l/m 2,7 km/h (1 Bft) 0 min
27.06.2020 17:01 22,3 C 28,8 C 25,4 C 50 % 74 % 1014 hPa 0,0 l/m 3,3 km/h (1 Bft) 0 min
27.06.2020 17:04 22,4 C 28,8 C 25,4 C 48 % 74 % 1014 hPa 0,0 l/m 4,5 km/h (1 Bft) 0 min
27.06.2020 17:07 22,3 C 28,8 C 24,5 C 48 % 74 % 1014 hPa 0,0 l/m 5,5 km/h (1 Bft) 0 min
27.06.2020 17:10 22,3 C 29,0 C 25,1 C 47 % 74 % 1014 hPa 0,0 l/m 0,8 km/h (0 Bft) 0 min
27.06.2020 17:13 22,3 C 29,0 C 25,6 C 45 % 74 % 1014 hPa 0,0 l/m 0,9 km/h (0 Bft) 0 min
27.06.2020 17:16 22,3 C 29,1 C 25,9 C 45 % 74 % 1014 hPa 0,0 l/m 8,2 km/h (2 Bft) 0 min
27.06.2020 17:19 22,3 C 29,2 C 25,5 C 45 % 74 % 1014 hPa 0,0 l/m 0,1 km/h (0 Bft) 0 min
27.06.2020 17:22 22,4 C 29,4 C 24,8 C 47 % 74 % 1014 hPa 0,0 l/m 4,0 km/h (1 Bft) 0 min
27.06.2020 17:25 22,4 C 29,5 C 25,4 C 42 % 74 % 1014 hPa 0,0 l/m 1,7 km/h (1 Bft) 0 min
27.06.2020 17:28 22,3 C 29,7 C 25,6 C 44 % 74 % 1014 hPa 0,0 l/m 4,8 km/h (1 Bft) 0 min
27.06.2020 17:31 22,4 C 29,8 C 25,5 C 44 % 74 % 1014 hPa 0,0 l/m 4,8 km/h (1 Bft) 0 min
27.06.2020 17:34 22,4 C 29,8 C 25,1 C 44 % 74 % 1014 hPa 0,0 l/m 5,4 km/h (1 Bft) 0 min
27.06.2020 17:37 22,4 C 29,7 C 25,5 C 44 % 74 % 1014 hPa 0,0 l/m 3,9 km/h (1 Bft) 0 min
27.06.2020 17:40 22,4 C 29,6 C 25,8 C 45 % 74 % 1014 hPa 0,0 l/m 6,8 km/h (2 Bft) 0 min
27.06.2020 17:43 22,4 C 29,6 C 25,1 C 45 % 74 % 1014 hPa 0,0 l/m 0,6 km/h (0 Bft) 0 min
27.06.2020 17:46 22,4 C 29,4 C 25,3 C 44 % 74 % 1014 hPa 0,0 l/m 1,0 km/h (0 Bft) 0 min
27.06.2020 17:49 22,4 C 29,2 C 25,2 C 45 % 74 % 1014 hPa 0,0 l/m 1,1 km/h (1 Bft) 0 min
27.06.2020 17:52 22,4 C 29,2 C 25,2 C 46 % 74 % 1014 hPa 0,0 l/m 1,0 km/h (0 Bft) 0 min
27.06.2020 17:55 22,3 C 29,1 C 24,6 C 46 % 74 % 1014 hPa 0,0 l/m 1,0 km/h (0 Bft) 0 min
27.06.2020 17:58 22,4 C 29,1 C 24,5 C 46 % 74 % 1014 hPa 0,0 l/m 6,1 km/h (2 Bft) 0 min
27.06.2020 18:01 22,4 C 29,1 C 25,0 C 48 % 74 % 1014 hPa 0,0 l/m 5,4 km/h (1 Bft) 0 min
27.06.2020 18:04 22,4 C 29,1 C 25,0 C 47 % 74 % 1014 hPa 0,0 l/m 3,2 km/h (1 Bft) 0 min
27.06.2020 18:07 22,3 C 29,1 C 25,2 C 48 % 74 % 1014 hPa 0,0 l/m 7,6 km/h (2 Bft) 0 min
27.06.2020 18:10 22,4 C 29,1 C 24,7 C 48 % 74 % 1014 hPa 0,0 l/m 4,2 km/h (1 Bft) 0 min
27.06.2020 18:13 22,4 C 29,1 C 25,4 C 49 % 74 % 1014 hPa 0,0 l/m 7,1 km/h (2 Bft) 0 min
27.06.2020 18:16 22,4 C 29,0 C 25,3 C 49 % 74 % 1014 hPa 0,0 l/m 4,8 km/h (1 Bft) 0 min
27.06.2020 18:19 22,4 C 29,1 C 25,1 C 47 % 74 % 1014 hPa 0,0 l/m 1,0 km/h (0 Bft) 0 min
27.06.2020 18:22 22,4 C 29,0 C 25,4 C 48 % 74 % 1014 hPa 0,0 l/m 7,0 km/h (2 Bft) 0 min
27.06.2020 18:25 22,4 C 29,0 C 24,9 C 48 % 74 % 1014 hPa 0,0 l/m 5,6 km/h (1 Bft) 0 min
27.06.2020 18:28 22,4 C 29,0 C 25,1 C 48 % 74 % 1014 hPa 0,0 l/m 0,6 km/h (0 Bft) 0 min
27.06.2020 18:31 22,4 C 29,0 C 25,2 C 48 % 74 % 1014 hPa 0,0 l/m 1,0 km/h (0 Bft) 0 min
27.06.2020 18:34 22,4 C 28,9 C 25,0 C 48 % 74 % 1014 hPa 0,0 l/m 0,4 km/h (0 Bft) 0 min
27.06.2020 18:37 22,4 C 28,9 C 25,1 C 48 % 74 % 1014 hPa 0,0 l/m 4,3 km/h (1 Bft) 0 min
27.06.2020 18:40 22,4 C 28,8 C 25,3 C 48 % 74 % 1014 hPa 0,0 l/m 3,5 km/h (1 Bft) 0 min
27.06.2020 18:43 22,4 C 28,8 C 25,1 C 48 % 74 % 1014 hPa 0,0 l/m 0,4 km/h (0 Bft) 0 min
27.06.2020 18:46 22,5 C 28,7 C 24,6 C 49 % 74 % 1014 hPa 0,0 l/m 4,0 km/h (1 Bft) 0 min
27.06.2020 18:49 22,4 C 28,7 C 24,2 C 49 % 74 % 1014 hPa 0,0 l/m 5,0 km/h (1 Bft) 0 min
27.06.2020 18:52 22,4 C 28,6 C 24,1 C 52 % 74 % 1014 hPa 0,0 l/m 4,2 km/h (1 Bft) 0 min
27.06.2020 18:55 22,4 C 28,4 C 24,3 C 52 % 74 % 1014 hPa 0,0 l/m 7,2 km/h (2 Bft) 0 min
27.06.2020 18:58 22,4 C 28,4 C 24,1 C 51 % 74 % 1014 hPa 0,0 l/m 4,3 km/h (1 Bft) 0 min
27.06.2020 19:01 22,4 C 28,3 C 24,3 C 52 % 74 % 1014 hPa 0,0 l/m 3,1 km/h (1 Bft) 0 min
27.06.2020 19:04 22,5 C 28,2 C 24,4 C 52 % 74 % 1014 hPa 0,0 l/m 4,0 km/h (1 Bft) 0 min
27.06.2020 19:07 22,5 C 28,2 C 24,2 C 52 % 74 % 1014 hPa 0,0 l/m 4,0 km/h (1 Bft) 0 min
27.06.2020 19:10 22,5 C 28,1 C 24,1 C 52 % 74 % 1014 hPa 0,0 l/m 7,0 km/h (2 Bft) 0 min
27.06.2020 19:13 22,5 C 28,0 C 23,9 C 53 % 74 % 1014 hPa 0,0 l/m 4,9 km/h (1 Bft) 0 min
27.06.2020 19:16 22,5 C 27,9 C 23,8 C 53 % 74 % 1014 hPa 0,0 l/m 5,6 km/h (1 Bft) 0 min
27.06.2020 19:19 22,5 C 27,8 C 23,8 C 54 % 74 % 1014 hPa 0,0 l/m 4,0 km/h (1 Bft) 0 min
27.06.2020 19:22 22,5 C 27,7 C 23,7 C 54 % 74 % 1014 hPa 0,0 l/m 4,0 km/h (1 Bft) 0 min
27.06.2020 19:25 22,5 C 27,6 C 23,6 C 53 % 74 % 1014 hPa 0,0 l/m 2,7 km/h (1 Bft) 0 min
27.06.2020 19:28 22,5 C 27,6 C 23,7 C 53 % 74 % 1014 hPa 0,0 l/m 3,1 km/h (1 Bft) 0 min
27.06.2020 19:31 22,6 C 27,6 C 23,7 C 53 % 74 % 1014 hPa 0,0 l/m 3,1 km/h (1 Bft) 0 min
27.06.2020 19:34 22,6 C 27,4 C 23,8 C 54 % 74 % 1014 hPa 0,0 l/m 3,1 km/h (1 Bft) 0 min
27.06.2020 19:37 22,5 C 27,4 C 23,7 C 54 % 74 % 1014 hPa 0,0 l/m 2,8 km/h (1 Bft) 0 min
27.06.2020 19:40 22,5 C 27,3 C 23,6 C 54 % 74 % 1014 hPa 0,0 l/m 2,1 km/h (1 Bft) 0 min
27.06.2020 19:43 22,5 C 27,2 C 23,5 C 55 % 74 % 1014 hPa 0,0 l/m 0,0 km/h (0 Bft) 0 min
27.06.2020 19:46 22,5 C 27,1 C 23,6 C 56 % 74 % 1014 hPa 0,0 l/m 0,0 km/h (0 Bft) 0 min
27.06.2020 19:49 22,5 C 27,0 C 23,7 C 55 % 74 % 1014 hPa 0,0 l/m 0,0 km/h (0 Bft) 0 min
27.06.2020 19:52 22,5 C 26,9 C 23,7 C 56 % 74 % 1014 hPa 0,0 l/m 0,0 km/h (0 Bft) 0 min
27.06.2020 19:55 22,4 C 26,8 C 23,5 C 57 % 74 % 1014 hPa 0,0 l/m 0,3 km/h (0 Bft) 0 min
27.06.2020 19:58 22,4 C 26,7 C 23,5 C 57 % 74 % 1014 hPa 0,0 l/m 0,3 km/h (0 Bft) 0 min
27.06.2020 20:01 22,4 C 26,6 C 23,5 C 58 % 74 % 1014 hPa 0,0 l/m 0,3 km/h (0 Bft) 0 min
27.06.2020 20:04 22,4 C 26,6 C 23,4 C 58 % 74 % 1014 hPa 0,0 l/m 0,0 km/h (0 Bft) 0 min
27.06.2020 20:07 22,4 C 26,3 C 23,4 C 58 % 74 % 1014 hPa 0,0 l/m 0,0 km/h (0 Bft) 0 min
27.06.2020 20:10 22,4 C 26,2 C 23,3 C 59 % 74 % 1014 hPa 0,0 l/m 0,0 km/h (0 Bft) 0 min
27.06.2020 20:13 22,4 C 25,9 C 23,3 C 59 % 74 % 1014 hPa 0,0 l/m 0,0 km/h (0 Bft) 0 min
27.06.2020 20:16 22,4 C 25,8 C 23,3 C 59 % 74 % 1014 hPa 0,0 l/m 0,0 km/h (0 Bft) 0 min
27.06.2020 20:19 22,4 C 25,6 C 23,3 C 60 % 74 % 1014 hPa 0,0 l/m 0,0 km/h (0 Bft) 0 min
27.06.2020 20:22 22,4 C 25,5 C 23,2 C 60 % 74 % 1014 hPa 0,0 l/m 0,0 km/h (0 Bft) 0 min
27.06.2020 20:25 22,4 C 25,5 C 23,0 C 60 % 74 % 1014 hPa 0,0 l/m 0,0 km/h (0 Bft) 0 min
27.06.2020 20:28 22,4 C 25,5 C 22,9 C 60 % 74 % 1014 hPa 0,0 l/m 0,0 km/h (0 Bft) 0 min
27.06.2020 20:31 22,5 C 25,1 C 22,9 C 61 % 74 % 1014 hPa 0,0 l/m 0,0 km/h (0 Bft) 0 min
27.06.2020 20:34 22,5 C 24,8 C 22,7 C 62 % 74 % 1014 hPa 0,0 l/m 0,0 km/h (0 Bft) 0 min
27.06.2020 20:37 22,5 C 24,7 C 22,6 C 62 % 74 % 1014 hPa 0,0 l/m 0,1 km/h (0 Bft) 0 min
27.06.2020 20:40 22,5 C 24,6 C 22,6 C 63 % 74 % 1014 hPa 0,0 l/m 0,1 km/h (0 Bft) 0 min
27.06.2020 20:43 22,4 C 24,4 C 22,8 C 63 % 74 % 1014 hPa 0,0 l/m 0,0 km/h (0 Bft) 0 min
27.06.2020 20:46 22,4 C 24,4 C 22,8 C 64 % 74 % 1014 hPa 0,0 l/m 0,0 km/h (0 Bft) 0 min
27.06.2020 20:49 22,4 C 24,3 C 22,7 C 64 % 74 % 1014 hPa 0,0 l/m 0,0 km/h (0 Bft) 0 min
27.06.2020 20:52 22,4 C 24,1 C 22,6 C 64 % 74 % 1014 hPa 0,0 l/m 0,0 km/h (0 Bft) 0 min
27.06.2020 20:55 22,4 C 24,0 C 22,4 C 65 % 74 % 1014 hPa 0,0 l/m 0,0 km/h (0 Bft) 0 min
27.06.2020 20:58 22,4 C 23,9 C 22,2 C 65 % 74 % 1014 hPa 0,0 l/m 0,0 km/h (0 Bft) 0 min
27.06.2020 21:01 22,4 C 23,8 C 22,3 C 65 % 74 % 1014 hPa 0,0 l/m 0,0 km/h (0 Bft) 0 min
27.06.2020 21:04 22,4 C 23,7 C 22,4 C 66 % 74 % 1014 hPa 0,0 l/m 0,4 km/h (0 Bft) 0 min
27.06.2020 21:07 22,4 C 23,6 C 22,5 C 67 % 74 % 1014 hPa 0,0 l/m 0,4 km/h (0 Bft) 0 min
27.06.2020 21:10 22,4 C 23,6 C 22,5 C 67 % 74 % 1014 hPa 0,0 l/m 0,0 km/h (0 Bft) 0 min
27.06.2020 21:13 22,4 C 23,5 C 22,1 C 67 % 74 % 1014 hPa 0,0 l/m 0,5 km/h (0 Bft) 0 min
27.06.2020 21:16 22,4 C 23,4 C 22,2 C 67 % 74 % 1015 hPa 0,0 l/m 0,4 km/h (0 Bft) 0 min
27.06.2020 21:19 22,4 C 23,4 C 22,2 C 67 % 74 % 1015 hPa 0,0 l/m 0,0 km/h (0 Bft) 0 min
27.06.2020 21:22 22,4 C 23,3 C 22,1 C 67 % 74 % 1015 hPa 0,0 l/m 0,0 km/h (0 Bft) 0 min
27.06.2020 21:25 22,4 C 23,2 C 22,0 C 67 % 74 % 1015 hPa 0,0 l/m 0,0 km/h (0 Bft) 0 min
27.06.2020 21:28 22,4 C 23,2 C 22,0 C 67 % 74 % 1015 hPa 0,0 l/m 0,0 km/h (0 Bft) 0 min
27.06.2020 21:31 22,4 C 23,1 C 22,0 C 68 % 74 % 1015 hPa 0,0 l/m 0,0 km/h (0 Bft) 0 min
27.06.2020 21:34 22,4 C 23,0 C 21,9 C 68 % 74 % 1015 hPa 0,0 l/m 0,0 km/h (0 Bft) 0 min
27.06.2020 21:37 22,5 C 22,9 C 21,8 C 68 % 74 % 1015 hPa 0,0 l/m 0,0 km/h (0 Bft) 0 min
27.06.2020 21:40 22,5 C 22,8 C 21,8 C 69 % 74 % 1015 hPa 0,0 l/m 0,0 km/h (0 Bft) 0 min
27.06.2020 21:43 22,4 C 22,8 C 21,8 C 69 % 74 % 1015 hPa 0,0 l/m 0,0 km/h (0 Bft) 0 min
27.06.2020 21:46 22,5 C 22,6 C 21,7 C 69 % 74 % 1015 hPa 0,0 l/m 0,0 km/h (0 Bft) 0 min
27.06.2020 21:49 22,4 C 22,5 C 21,8 C 69 % 74 % 1015 hPa 0,0 l/m 0,0 km/h (0 Bft) 0 min
27.06.2020 21:52 22,4 C 22,5 C 21,9 C 70 % 74 % 1015 hPa 0,0 l/m 0,0 km/h (0 Bft) 0 min
27.06.2020 21:55 22,5 C 22,5 C 21,9 C 70 % 74 % 1015 hPa 0,0 l/m 0,0 km/h (0 Bft) 0 min
27.06.2020 21:58 22,4 C 22,4 C 21,7 C 70 % 74 % 1015 hPa 0,0 l/m 0,0 km/h (0 Bft) 0 min
27.06.2020 22:01 22,4 C 22,3 C 21,5 C 70 % 74 % 1015 hPa 0,0 l/m 0,0 km/h (0 Bft) 0 min
27.06.2020 22:04 22,4 C 22,2 C 21,4 C 71 % 74 % 1015 hPa 0,0 l/m 0,0 km/h (0 Bft) 0 min
27.06.2020 22:07 22,4 C 22,2 C 21,5 C 71 % 74 % 1015 hPa 0,0 l/m 0,0 km/h (0 Bft) 0 min
27.06.2020 22:10 22,4 C 22,1 C 21,4 C 71 % 74 % 1015 hPa 0,0 l/m 0,0 km/h (0 Bft) 0 min
27.06.2020 22:13 22,4 C 22,0 C 21,4 C 71 % 74 % 1015 hPa 0,0 l/m 0,0 km/h (0 Bft) 0 min
27.06.2020 22:16 22,4 C 22,0 C 21,4 C 71 % 74 % 1015 hPa 0,0 l/m 0,0 km/h (0 Bft) 0 min
27.06.2020 22:19 22,4 C 22,0 C 21,5 C 71 % 74 % 1016 hPa 0,0 l/m 0,0 km/h (0 Bft) 0 min
27.06.2020 22:22 22,5 C 22,0 C 21,7 C 71 % 74 % 1016 hPa 0,0 l/m 6,1 km/h (2 Bft) 0 min
27.06.2020 22:25 22,5 C 22,0 C 21,7 C 71 % 74 % 1016 hPa 0,0 l/m 3,9 km/h (1 Bft) 0 min
27.06.2020 22:28 22,5 C 22,2 C 21,7 C 70 % 74 % 1016 hPa 0,0 l/m 9,7 km/h (2 Bft) 0 min
27.06.2020 22:31 22,5 C 22,5 C 22,0 C 69 % 74 % 1016 hPa 0,0 l/m 9,7 km/h (2 Bft) 0 min
27.06.2020 22:34 22,5 C 22,8 C 22,0 C 68 % 74 % 1016 hPa 0,0 l/m 8,8 km/h (2 Bft) 0 min
27.06.2020 22:37 22,6 C 22,9 C 22,2 C 68 % 74 % 1016 hPa 0,0 l/m 11,3 km/h (2 Bft) 0 min
27.06.2020 22:40 22,6 C 22,9 C 22,2 C 67 % 74 % 1016 hPa 0,0 l/m 11,6 km/h (2 Bft) 0 min
27.06.2020 22:43 22,6 C 23,0 C 22,4 C 66 % 74 % 1016 hPa 0,0 l/m 11,6 km/h (2 Bft) 0 min
27.06.2020 22:46 22,6 C 23,0 C 22,4 C 66 % 74 % 1016 hPa 0,0 l/m 11,3 km/h (2 Bft) 0 min
27.06.2020 22:49 22,6 C 22,9 C 22,3 C 66 % 74 % 1016 hPa 0,0 l/m 11,8 km/h (2 Bft) 0 min
27.06.2020 22:52 22,6 C 22,8 C 22,1 C 66 % 74 % 1016 hPa 0,0 l/m 11,8 km/h (2 Bft) 0 min
27.06.2020 22:55 22,6 C 22,8 C 22,2 C 66 % 74 % 1017 hPa 0,0 l/m 11,8 km/h (2 Bft) 0 min
27.06.2020 22:58 22,6 C 22,8 C 22,1 C 67 % 74 % 1017 hPa 0,0 l/m 11,8 km/h (2 Bft) 0 min
27.06.2020 23:01 22,6 C 22,8 C 22,4 C 66 % 74 % 1017 hPa 0,0 l/m 16,7 km/h (3 Bft) 0 min
27.06.2020 23:04 22,7 C 22,8 C 22,3 C 66 % 74 % 1017 hPa 0,0 l/m 15,0 km/h (3 Bft) 0 min
27.06.2020 23:07 22,7 C 22,8 C 22,2 C 66 % 74 % 1017 hPa 0,0 l/m 15,0 km/h (3 Bft) 0 min
27.06.2020 23:10 22,7 C 22,6 C 21,8 C 66 % 74 % 1017 hPa 0,0 l/m 15,0 km/h (3 Bft) 0 min
27.06.2020 23:13 22,7 C 22,2 C 21,4 C 68 % 74 % 1017 hPa 0,0 l/m 23,3 km/h (4 Bft) 0 min
27.06.2020 23:16 22,7 C 22,2 C 21,1 C 68 % 74 % 1017 hPa 0,0 l/m 12,6 km/h (3 Bft) 0 min
27.06.2020 23:19 22,7 C 21,4 C 21,2 C 71 % 74 % 1017 hPa 0,0 l/m 7,2 km/h (2 Bft) 0 min
27.06.2020 23:22 22,6 C 21,1 C 21,1 C 73 % 74 % 1018 hPa 0,0 l/m 7,2 km/h (2 Bft) 0 min
27.06.2020 23:25 22,6 C 20,8 C 20,7 C 74 % 74 % 1018 hPa 0,3 l/m 4,5 km/h (1 Bft) 3 min
27.06.2020 23:28 22,6 C 20,5 C 20,7 C 74 % 74 % 1018 hPa 0,3 l/m 4,5 km/h (1 Bft) 3 min
27.06.2020 23:31 22,6 C 20,3 C 20,4 C 75 % 74 % 1018 hPa 0,0 l/m 5,5 km/h (1 Bft) 0 min
27.06.2020 23:34 22,6 C 20,3 C 20,5 C 75 % 74 % 1018 hPa 0,0 l/m 4,2 km/h (1 Bft) 0 min
27.06.2020 23:37 22,6 C 19,9 C 20,2 C 75 % 74 % 1018 hPa 0,0 l/m 2,9 km/h (1 Bft) 0 min
27.06.2020 23:40 22,5 C 19,8 C 20,3 C 75 % 74 % 1018 hPa 0,0 l/m 1,1 km/h (1 Bft) 0 min
27.06.2020 23:43 22,6 C 19,6 C 20,2 C 76 % 74 % 1018 hPa 0,0 l/m 1,4 km/h (1 Bft) 0 min
27.06.2020 23:46 22,5 C 19,5 C 20,1 C 76 % 74 % 1018 hPa 0,0 l/m 0,4 km/h (0 Bft) 0 min
27.06.2020 23:49 22,5 C 19,4 C 20,3 C 76 % 74 % 1018 hPa 0,0 l/m 0,7 km/h (0 Bft) 0 min
27.06.2020 23:52 22,5 C 19,4 C 20,1 C 76 % 74 % 1018 hPa 0,0 l/m 1,5 km/h (1 Bft) 0 min
27.06.2020 23:55 22,5 C 19,4 C 20,2 C 76 % 74 % 1018 hPa 0,0 l/m 6,8 km/h (2 Bft) 0 min
27.06.2020 23:58 22,5 C 19,3 C 20,2 C 75 % 74 % 1018 hPa 0,0 l/m 1,8 km/h (1 Bft) 0 min
_ Min-Zeit 05:19 04:49 04:52 17:25 - 16:52 - 00:28 -
Minimum _ 21,5 C 16,1 C 17,0 C 42 % - 1014 hPa - 0,0 km/h (0 Bft) -
_ Max-Zeit 23:04 17:31 17:16 00:37 00:01 23:22 00:25 23:13 00:25
Maximum _ 22,7 C 29,8 C 25,9 C 76 % 74 % 1018 hPa 0,3 l/m 23,3 km/h
N (4 Bft)
3 min
Durchschnitt _ 22,0 C 22,2 C 21,0 C 65 % #15:39 h 1016 hPa #3,1 l/m 3,1 km/h (1 Bft) #27 min.